Regional Weather Roundup
Issued by NWS Wakefield, VA

Home | Current Version | Previous Version | Graphics & Text | Print | Product List | Glossary On
Versions: 1 2 3 4 5 6 7 8 9 10 11 12 13 14 15 16 17 18 19 20 21 22 23 24 25 26 27 28 29 30 31 32 33 34 35 36 37 38 39 40 41 42 43 44 45 46 47
170
ASUS41 KAKQ 072215
RWRAKQ

REGIONAL WEATHER ROUNDUP
NATIONAL WEATHER SERVICE WAKEFIELD VA
500 PM EST SUN FEB 07 2016

Note: "fair" indicates few or no clouds below 12,000 feet with no
significant weather and/or obstructions to visibility. * = Denotes
station may not report precipitation (e.g., rain,snow,etc.),
thunder or fog.

VAZ042-051-052>054-056-072300-
NORTHERN VIRGINIA

CITY           SKY/WX    TMP DP  RH WIND       PRES   REMARKS
WASH NATIONAL  CLOUDY    43  23  45 NE9       29.99F
DULLES         MOCLDY    43  23  45 NW8       29.98F
FORT BELVOIR   FAIR      44  16  32 VRB1      29.98F
QUANTICO       FAIR      44  25  47 NE8       30.00F
FREDERICKSBRG* FAIR      43  21  41 N7        29.96F
STAFFORD*      FAIR      43  18  37 NE6       30.01F
WARRENTON      FAIR      44  27  51 N5        29.97S
CULPEPER*      FAIR      43  22  43 CALM      29.99S
MANASSAS*      CLEAR     45  23  42 VRB6      29.98F
LEESBURG*      FAIR      45  27  49 N5        29.99F
WINCHESTER     FAIR      43  25  49 E3        29.97F
FRONT ROYAL*   FAIR      43  25  49 E3        29.96S
LURAY*         FAIR      43  25  49 CALM      29.96S
$$

VAZ048-049-060>072-079>083-072300-
CENTRAL AND SOUTH CENTRAL VIRGINIA

CITY           SKY/WX    TMP DP  RH WIND       PRES   REMARKS
RICHMOND       CLOUDY    42  24  49 N8        29.95F
CHESTERFIELD*  FAIR      45  16  31 N8        29.96F
PETERSBURG*    CLOUDY    44  17  34 N9        29.93F
HANOVER        FAIR      43  20  39 VRB5      29.96F
TAPPAHANNOCK*  FAIR      43  25  48 N6        29.96F
QUINTON*       FAIR      42  24  47 N8        29.93F
CHARLOTTSVILLE FAIR      45  23  42 NE7       29.95F
GORDONSVILLE*  FAIR      43  26  49 NE3       29.95F
ORANGE*        FAIR      45  27  49 N5        29.98S
LOUISA*        FAIR      45  23  42 NE7       29.93F
BUMPASS*       FAIR      43  20  40 NE3       29.96F
FARMVILLE*     FAIR      45  23  42 NE8       29.93F
CREWE*         FAIR      43  21  41 N5        29.93F
FORT PICKETT*  FAIR      42  18  38 N10       29.92F
CHASE CITY*    FAIR      43  20  40 N6        29.92F
CLARKSVILLE*   FAIR      43  23  45 N6        29.91F
SOUTH HILL*    FAIR      41  22  46 N10G17    29.97S
LAWRENCEVILLE* CLOUDY    42  23  46 N6        29.90F
EMPORIA*       CLOUDY    41  25  52 NW12G18   29.90F
$$

VAZ088>098-072300-
SOUTHEAST VIRGINIA

CITY           SKY/WX    TMP DP  RH WIND       PRES   REMARKS
NORFOLK        CLOUDY    42  30  62 N18G31    29.86F
VIRGINIA BEACH LGT RAIN  44  33  65 N26G33    29.83F
NORFOLK NAVAL  CLOUDY    42  29  59 N28G37    29.89F
WEST POINT*    FAIR      42  23  46 N8        29.94F
SALUDA*        NOT AVBL
NEWPORT NEWS   CLOUDY    41  27  57 N17G25    29.90F
LANGLEY AFB    FAIR      41  28  57 NE17G29   29.88S
FORT EUSTIS    CLOUDY    42  21  43 N9G20     29.88F
WILLIAMSBURG*  FAIR      45  28  53 N8        29.91F
HR EXEC AP*    CLOUDY    41  27  56 N10G24    29.88F
FRANKLIN*      CLOUDY    41  24  50 N10G22    29.88F
US460-WAKEFLD  FAIR      43  24  47 VRB7      29.90F
$$

VAZ020-022-025-037-045-072300-
WEST CENTRAL AND SOUTHWEST VIRGINIA

CITY           SKY/WX    TMP DP  RH WIND       PRES   REMARKS
STAUNTON*      FAIR      45  27  49 NE5       29.96S
WAYNESBORO*    FAIR      40  23  51 CALM      29.93F
HOT SPRINGS VA FAIR      38  22  52 CALM      29.86R
LYNCHBURG      FAIR      44  23  43 N5        29.93F
DANVILLE       FAIR      46  24  42 N5        29.93F
SOUTH BOSTON*  FAIR      44  22  41 N5        29.93F
MARTINSVILLE   FAIR      44  21  40 NE6       29.95S
ROANOKE        CLOUDY    46  24  42 E7        29.94F
BLACKSBURG     FAIR      46  25  43 N5        29.94R
DUBLIN*        FAIR      46  23  40 N5        29.93R
MARION*        FAIR      46  20  36 NW9       29.94R
HILLSVILLE*    FAIR      42  24  47 N5        29.89S
RICHLANDS*     FAIR      46  17  31 W6        29.91F
WISE*          FAIR      46  12  25 NW5       29.93F
ABINGDON*      FAIR      49  15  25 CALM      29.93F
$$

MDZ021>025-VAZ099-100-072300-
SOUTHERN MARYLAND AND THE DELMARVA PENINSULA

CITY           SKY/WX    TMP DP  RH WIND       PRES   REMARKS
PATUXENT RIVER CLOUDY    40  30  67 N10       29.96F
BAY BRIDGE APT   N/A     41  27  56 CALM      29.99F
LEONARDTOWN    CLOUDY    39  28  65 N3        29.99S
DOVER          CLOUDY    40  31  69 N6        29.97F
GEORGETOWN     CLOUDY    40  28  62 NE8       29.98F
EASTON         CLOUDY    41  28  60 NE7       30.02F
CAMBRIDGE      CLOUDY    41  25  52 NE6       29.97F
SALISBURY      CLOUDY    40  26  57 N9        29.95F
OCEAN CITY     CLOUDY    40  32  73 NE14G24   29.95F
WALLOPS ISLAND FAIR      41  25  53 N14G23    29.91F
ACCOMACK*      MOCLDY    41  23  48 N15G21    29.91F
$$

NCZ012>017-030>032-072300-
NORTH CENTRAL AND EASTERN NORTH CAROLINA

CITY           SKY/WX    TMP DP  RH WIND       PRES   REMARKS
ROANOKE RAPIDS FAIR      41  27  56 N16G23    29.87F
RALEIGH        CLOUDY    44  21  40 NE10G22   29.89F
ELIZABETH CITY RAIN      40  37  89 N28G39    29.77F
AHOSKIE*       CLOUDY    40  24  52 N15G24    29.84F
EDENTON*       LGT RAIN  39  36  88 N17G31    29.78F
CURRITUCK*     MIX PCPN  40  39  95 N17G36    29.80F
KILL DEVIL HLS RAIN      44  41  91 N18G32    29.65F
MANTEO         RAIN      43  43  99 N32G47    29.67F
CAPE HATTERAS  RAIN      47  46  97 N16G39    29.52F FOG
TARBORO*       LGT RAIN  40  28  61 N10G23    29.83F
GOLDSBORO      CLOUDY    37  36  93 N9        29.79F
WASHINGTON     RAIN      36  32  87 N20       29.78R WCI  25
GREENVILLE     LGT RAIN  37  32  81 N14G20    29.82F
NEW BERN       HVY RAIN  36  33  89 N25G33    29.73S FOG     WCI  24
WILMINGTON     LGT RAIN  36  31  82 N20G36    29.73R
$$

VAZ048-072300-
ELSEWHERE

CITY           SKY/WX    TMP DP  RH WIND       PRES   REMARKS
HARRISBURG PA  PTCLDY    43  23  45 CALM      29.99S
BALTIMORE      CLOUDY    43  19  38 NE8       29.98F
ANNAPOLIS      CLOUDY    41  25  53 NE5       29.98F
ANDREWS AFB    FAIR      41  21  44 NE7       29.97F
PHILADELPHIA   MOCLDY    43  22  43 E7        30.00F
HENDERSON NC   CLOUDY    42  20  41 N8        29.90F
GREENSBORO     CLOUDY    47  19  33 N8        29.90F
ROCKY MOUNT    CLOUDY    41  26  55 N16G26    29.83F
$$

VAZ100-072300-
MARINE

STATION/POSITION TIME  TEMP    WIND        PRES    WAVE   SWELL
                       AIR SEA DIR/SP/G            HT/PER HT/PER
                 (UTC) (F)     (DEG/KT/KT) (MB)    (FT/S) (FT/S)
BRANDYWINE LGT   2100   41      60/ 11/ 12 1015.4F
CAPE MAY NJ      2100   42 43   50/  8/ 12 1015.2F
LEWES DE         2100   42 42   70/ 13/ 15 1015.5F
15NM E FENWICK I 2150   43 45              1013.6F   6/ 5
OCEAN-CITY-INLET 2100   41 42   30/ 11/ 18 1013.9F
WACHAPREAGUE VA  2100   42 42   20/ 12/ 18 1013.3F
GOOSES REEF MD   2200   40 40   20/ 12/ 12 1016.0F   2/ 3
COVE POINT MD    2100   38      10/ 13/ 17 1015.9F
SOLOMONS ISLAND  2100   40 41  360/ 11/ 14   N/A
BISHOPS HEAD MD  2100   42 41   30/ 12/ 15 1014.1F
POTOMAC MD       2200   41 40   10/ 12/ 16 1013.4F   1
CAMBRIDGE MD     2100   43 40   10/ 11/ 12 1014.5F
LEWISETTA VA     2100   42 42   20/  7/ 11 1014.9F
RAPPAHANNOCK LGT 2100           10/ 21/ 23 1013.4F
STINGRAY PT      2200   41 42   20/ 17/ 21 1013.3F   2/ 3
YORK RVR RNG VA  2100   42      20/ 24/ 28 1011.9F
YORKTOWN VA      2100   42 43   20/ 15/ 19 1013.0F
JAMESTOWN VA     2200   42 44  360/  8/ 12   N/A     0
DOMINION TERM VA 2100   41      20/ 13/ 24 1012.2F
KIPTOPEKE VA     2100      43   20/ 13/ 20   N/A
CHES BAY BRIDGE  2100   41 43  340/ 27/ 32 1010.8F
CAPE HENRY VA    2100   42      10/ 32/ 39   N/A
CHESAPEAKE LGHT  2100   41      20/ 35/ 39 1009.1F
WILLOUBY STN VA  2100   41      10/ 22/ 25 1027.5S
CAPE HENRY BUOY  2128      46                N/A     9/ 7   2/11
1ST LANDING BUOY 2200      42                N/A     5/ 4
CAPE CHARLES BUO 2126      44                N/A     8/ 6   3/10
OFFSHORE WE BUOY 2121      49                N/A    10/ 7   3/11
64NM E OF VA BCH 2150   50 54   30/ 35/ 43 1004.0F  13/ 8   2/14
DUCK PIER NC     2100   44 44   10/ 30/ 36 1005.6F
44100 DUCK FRF   2124      47                N/A    12/ 8   2/11
44056 DUCK FRF   2111      44                N/A    10/ 7   2/11
OREGON INLET NC  2100   46 45  360/ 24/ 34 1003.1F
HATTERAS NC      2100   47 47  360/ 42/ 49  998.8F
DIAMOND SHLS NC  2150   57 70   20/ 39/ 49  995.0F  19/10   2/14
$$




USA.gov is the U.S. government's official web portal to all federal, state and local government web resources and services.